Location: Riverside
(39.1734°N, 77.8561°W)
Time: 19:43:52
(UTC+00:00)

OTV 5 (USA 277) - Pass Details

Date: 19 October 2019
Orbit: 310 x 324 km, 54.5° (Epoch: 17 October)

Event Time Altitude Azimuth Distance (km) Brightness Sun altitude
Exits shadow 09:23:10 14° 41° (NE) 1,042 ? -24.3°
Drops below altitude 10° 09:24:19 10° 66° (ENE) 1,235 ? -24.1°
Sets 09:26:53 0° 93° (E) 2,060 ? -23.6°
